Tracking 35280 objects as of 7-Sep-2026
HD Live streaming from Space Station
objects crossing your sky now

LEMUR-2-TEODOR

Track LEMUR-2-TEODOR now!
10-day predictions
LEMUR-2-TEODOR is classified as:


NORAD ID: 66768
Int'l Code: 2025-276DG
Launch date: November 28, 2025
Source: United States (US)
Launch site: AIR FORCE WESTERN TEST RANGE (AFWTR)
Your satellite tracking list
Your tracking list is empty




NASA's NSSDC Master Catalog

Two Line Element Set (TLE):
1 66768U 25276DG  26250.12927422  .00003590  00000-0  16118-3 0  9996
2 66768  97.4091 322.6479 0001273 120.6400 239.4962 15.21810637 42908
Source of the keplerian elements: AFSPC